Skip Page Navigation
NASA JPL Caltech
NASA Logo - Jet Propulsion Laboratory + View the NASA Portal
+ Near-Earth Object (NEO) Program
Search JPL
JPL Home Earth Solar System Stars & Galaxies Technology
JPL Solar System Dynamics
BODIES ORBITS EPHEMERIDES TOOLS PHYSICAL DATA DISCOVERY FAQ SITE MAP
JPL Small-Body Database Browser
Search: [ help ]  
369 Aeria (1893 AE)
Classification: Main-belt Asteroid          SPK-ID: 2000369
Ephemeris | Orbit Diagram | Orbital Elements | Physical Parameters | Discovery Circumstances ]

[ show orbit diagram ]
Orbital Elements at Epoch 2457600.5 (2016-Jul-31.0) TDB
Reference: JPL 71 (heliocentric ecliptic J2000)
 Element Value Uncertainty (1-sigma)   Units 
e .09738915056192393 3.854e-08  
a 2.648731597187958 9.4586e-09 au
q 2.390773876871295 1.0025e-07 au
i 12.70771638078446 5.4659e-06 deg
node 94.27900034979639 2.0151e-05 deg
peri 268.4256487672192 3.3881e-05 deg
M 114.4136051416367 2.8419e-05 deg
tp 2457100.084762989360
(2015-Mar-18.58476299)
0.00012337 JED
period 1574.546008761956
4.31
8.4341e-06
2.309e-08
d
yr
n .2286373329179901 1.2247e-09 deg/d
Q 2.906689317504622 1.038e-08 au
  Orbit Determination Parameters
   # obs. used (total)      1359  
   data-arc span      44840 days (122.77 yr)  
   first obs. used      1893-07-05  
   last obs. used      2016-04-11  
   planetary ephem.      DE431  
   SB-pert. ephem.      SB431-BIG16  
   condition code      0  
   fit RMS      .56457  
   data source      ORB  
   producer      Otto Matic  
   solution date      2016-Apr-25 12:27:19  

Additional Information
 Earth MOID = 1.42801 au 
 Jupiter MOID = 2.51368 au 
 T_jup = 3.350 
[ show covariance matrix ]

Ephemeris | Orbit Diagram | Orbital Elements | Physical Parameters | Discovery Circumstances ]

Physical Parameter Table
Parameter Symbol Value Units Sigma Reference Notes
absolute magnitude H 8.52 mag n/a IRAS-A-FPA-3-RDR-IMPS-V6.0 IRAS observations used: 27
diameter diameter 60.00 km 1.2 IRAS-A-FPA-3-RDR-IMPS-V6.0 IRAS observations used: 27
rotation period rot_per 4.778 h n/a LCDB (Rev. 2016-February); Warner et al., 2009 Published Reference List:
[Dotto, E.; Barucci, M.A.; Fulchignoni, M.; Di Martino, M.; et al. (1992) Astron. Astrophys. Suppl. Ser. 95, 195-211.]
[Schober, H.J.; Erikson, A.; Hahn, G.; Lagerkvist, C.-I.; et al. (1994) Astron. Astrophys. Suppl. Ser. 105, 281-300.]
[Higgins, D. (2011) Minor Planet Bul. 38, 41-46.]
[Stephens, R.D. (2012) Minor Planet Bul. 39, 181-183.]
geometric albedo albedo 0.1919   0.008 IRAS-A-FPA-3-RDR-IMPS-V6.0 IRAS observations used: 27
B-V BV .711 mag .010 EAR-A-5-DDR-UBV-MEAN-VALUES-V1.1 #obs=8; phase (min.=7.80, mean=12.56, max.=17.37) deg.
U-B UB .274 mag .022 EAR-A-5-DDR-UBV-MEAN-VALUES-V1.1 #obs=8; phase (min.=7.80, mean=12.58, max.=17.37) deg.
Tholen spectral type spec_T M   n/a EAR-A-5-DDR-TAXONOMY-V4.0 used 7 color indices; used ground-based radiometric albedo

369 Aeria (1893 AE)          Discovered 1893-Jul-04 by Borrelly, A. at Marseille
Reference: DISCOVERY.DBLast Updated: 2003-08-29

Alternate Designations
 1893 AE = 1949 MY = A894 WA 
Ephemeris | Orbit Diagram | Orbital Elements | Physical Parameters | Discovery Circumstances ]
ABOUT SSD CREDITS/AWARDS PRIVACY/COPYRIGHT GLOSSARY LINKS
FirstGov 2016-May-05 21:54 UT
(server date/time)  
NASA Home Page
Site Manager:   Ryan S. Park
Webmaster  Alan B. Chamberlin